Theta_e
315 310 309 305 296 291 288 290 293 295 295 299 299 296 294 296 296 293 311 324 332 334 343 347 351 354 355 354 354 353 353 351 350 350 350 349 349 349 349 347 345 343 341 340 338 336 333 333 334
312 312 306 297 290 285 287 291 293 295 297 298 298 297 297 295 302 308 314 322 334 338 344 346 348 353 354 354 353 353 352 352 350 349 349 347 347 346 346 346 344 342 340 337 335 332 330 329 331
311 308 300 293 286 285 288 291 292 296 297 297 298 301 300 298 304 308 314 323 334 338 343 345 347 352 354 353 353 352 352 352 350 349 348 345 343 342 341 342 342 338 337 334 332 329 327 324 326
306 303 296 290 289 290 290 292 293 294 297 297 299 299 298 304 304 310 318 330 332 335 341 343 348 351 352 352 352 351 351 351 351 350 348 343 340 340 336 336 338 336 335 332 328 325 323 322 323
301 296 290 288 288 290 291 294 294 294 294 296 298 295 296 304 312 318 320 330 330 333 337 341 346 349 350 351 351 351 351 350 351 351 348 345 341 336 333 334 337 334 332 329 326 323 322 321 320
298 293 287 286 288 292 293 296 295 294 293 296 299 298 297 305 311 315 319 323 329 331 335 339 339 343 346 348 349 349 349 350 350 349 347 345 341 337 332 332 333 333 331 327 325 322 319 319 319
295 290 287 286 288 291 293 296 298 295 292 296 302 298 299 305 307 315 317 317 325 330 333 336 340 340 339 342 343 345 347 348 348 347 345 342 340 339 335 334 331 331 330 326 324 321 318 317 316
296 292 288 286 287 289 294 296 295 294 294 299 299 295 297 304 304 313 313 315 316 325 330 332 335 339 339 340 336 338 341 343 343 342 339 335 335 334 332 329 330 330 328 326 323 321 318 315 313
296 288 285 287 289 290 294 294 296 295 293 295 297 299 298 303 306 308 307 312 313 318 326 330 333 338 341 338 335 333 335 336 337 336 332 329 331 330 325 325 328 329 328 326 323 321 318 313 309
293 286 288 291 294 292 294 292 294 294 294 292 294 297 301 305 305 305 306 308 310 314 317 325 329 336 338 338 340 336 335 336 334 333 331 329 327 326 324 320 325 327 326 328 323 321 316 303 292
293 289 292 295 295 295 294 293 294 292 293 295 294 296 298 300 301 302 302 303 305 308 314 320 326 330 335 336 338 337 334 334 334 330 327 325 325 323 321 317 317 315 317 315 316 310 305 299 295
293 296 295 298 298 295 294 295 294 294 297 298 296 296 295 294 294 295 295 296 296 302 308 316 321 325 328 331 335 335 335 331 327 327 323 324 323 321 319 314 313 312 311 309 307 304 303 298 294
292 293 295 298 297 294 295 295 293 295 298 297 296 297 295 295 295 295 296 296 296 296 299 307 319 322 324 325 327 331 333 332 330 324 325 324 322 320 317 315 312 310 308 307 304 302 301 296 293
292 293 294 295 295 295 294 292 293 295 295 294 296 294 293 293 293 293 294 294 295 297 298 302 313 321 323 323 322 323 324 327 326 324 324 324 322 320 317 315 313 312 309 305 304 302 300 296 292
294 291 292 293 293 293 294 290 292 296 295 293 293 292 292 292 292 291 292 293 294 295 298 300 312 318 320 320 320 321 321 321 324 324 323 324 322 320 317 314 310 309 306 304 302 300 296 294 292
288 288 286 291 292 292 292 288 294 295 294 291 291 289 290 291 291 291 291 292 293 294 296 299 305 314 316 318 318 319 319 323 324 324 323 323 322 320 315 312 311 309 307 303 301 298 296 293 291
286 283 284 289 293 291 289 287 294 294 292 290 288 288 289 289 290 290 291 290 291 293 294 296 298 301 311 314 315 315 315 316 317 319 320 322 321 318 316 312 310 309 307 306 303 298 295 293 291
284 283 284 285 290 291 289 289 291 291 291 288 287 287 287 288 288 290 290 290 291 292 293 294 296 296 300 308 308 306 304 303 303 303 306 311 316 317 314 312 310 308 306 303 300 299 294 291 291
286 284 283 286 291 289 289 288 287 289 288 286 286 287 287 287 289 290 290 289 290 290 291 292 292 293 295 296 298 299 298 299 298 298 298 301 305 308 311 309 307 306 304 303 299 296 295 293 289
286 284 284 288 290 288 288 286 286 287 287 287 286 286 286 287 287 288 288 288 288 288 289 290 291 291 292 294 293 295 294 295 295 295 295 295 296 297 301 302 303 302 301 300 298 295 294 292 291
286 285 285 286 287 286 284 284 285 286 287 288 287 287 287 286 286 286 286 286 286 286 287 289 289 290 291 292 292 292 291 290 290 290 290 291 292 292 293 293 295 296 298 297 296 295 294 293 292
285 290 289 287 283 280 284 279 282 284 284 285 285 284 284 285 286 286 286 285 285 285 286 288 288 289 289 290 290 288 287 285 286 287 287 288 289 288 289 290 290 291 292 291 292 295 293 292 290
288 289 287 285 282 280 281 279 280 283 282 282 283 284 284 285 285 284 284 285 285 284 283 284 286 286 287 287 287 286 284 285 284 284 284 284 286 286 286 287 287 287 289 288 289 289 289 289 291
290 286 286 283 281 277 281 282 281 281 283 283 284 284 284 284 283 284 285 284 284 284 283 282 284 285 285 285 285 284 283 282 282 282 282 282 283 284 284 285 285 285 286 286 286 287 287 287 288
286 285 279 276 275 277 281 279 282 284 285 286 284 283 283 283 282 282 282 282 283 283 283 283 282 282 283 284 284 283 282 282 281 281 281 281 281 282 283 284 284 284 284 285 285 285 285 286 286
284 285 279 271 273 276 281 279 282 283 285 286 284 283 283 283 283 283 283 283 282 283 282 282 282 282 282 283 283 283 284 283 283 283 282 282 281 282 283 283 284 284 284 284 284 284 283 284 284
284 282 286 278 276 272 279 281 282 282 281 281 281 281 281 281 282 283 283 283 283 282 282 283 282 283 283 284 284 283 284 284 283 283 283 282 283 284 284 284 283 283 283 284 284 283 282 283 283
286 288 281 279 270 269 276 278 280 279 279 280 280 281 281 281 282 282 282 282 282 283 283 284 284 284 283 282 282 281 282 283 282 281 280 280 281 281 281 281 281 281 281 282 282 281 282 281 282
284 282 282 282 277 271 269 276 283 283 282 281 282 283 282 281 281 281 282 283 284 283 282 282 282 282 282 282 282 281 282 281 281 281 280 280 281 280 280 280 280 280 280 280 279 279 280 280 280
285 284 284 281 277 278 277 279 284 286 285 284 284 284 282 281 281 281 282 282 281 281 280 280 281 281 281 281 281 280 280 280 279 279 280 280 280 281 280 280 280 280 279 279 278 278 278 277 277
Wind_Speed
5 4 2 6 5 6 2 2 2 1 2 2 1 2 2 2 3 4 4 8 5 9 10 10 12 14 14 13 13 13 12 12 11 11 11 12 11 9 10 12 11 9 8 7 7 7 7 6 6
3 0 5 3 7 4 5 4 2 2 2 2 2 2 2 2 1 1 2 7 6 9 10 10 10 12 13 14 13 12 12 12 12 11 9 9 10 9 9 9 11 8 7 6 6 7 7 6 6
0 4 5 5 4 3 4 4 3 2 2 2 1 1 1 2 1 3 4 8 7 7 9 9 12 13 13 13 13 13 12 11 10 10 10 13 9 5 7 7 5 4 6 5 5 6 5 5 5
4 6 5 6 0 3 3 3 3 2 3 1 1 1 2 1 1 2 3 8 8 6 7 9 13 14 14 14 13 11 10 11 11 11 10 6 6 5 4 4 3 4 6 4 4 5 5 5 5
5 4 5 3 3 4 3 2 2 2 0 2 1 3 3 2 1 4 6 6 8 6 6 8 13 13 14 15 14 13 12 9 10 11 10 13 9 5 3 3 3 1 2 2 3 3 4 4 4
5 4 5 0 4 5 6 4 2 2 1 2 0 0 4 2 1 3 6 6 5 7 6 7 11 11 12 13 14 13 12 12 11 11 10 15 12 8 4 2 3 1 1 1 1 2 2 4 4
6 5 4 2 3 5 4 9 2 2 1 2 2 1 3 3 6 3 4 5 5 5 6 5 7 9 10 11 11 12 12 11 10 9 10 12 11 9 9 3 3 4 3 2 0 1 3 4 5
6 5 2 2 2 2 4 8 2 2 3 6 3 2 4 2 3 5 3 4 5 5 5 6 6 7 6 7 10 11 10 9 9 11 11 11 9 10 10 3 5 4 4 3 1 1 2 3 4
3 5 1 4 4 4 3 5 4 2 2 4 3 0 3 3 4 3 2 0 2 4 6 6 7 8 10 5 6 8 9 9 8 8 10 8 4 5 8 7 4 5 4 4 3 2 1 4 6
5 4 7 4 2 3 3 2 3 6 7 2 3 6 3 1 0 3 5 6 5 7 6 6 7 10 11 8 8 5 5 5 5 5 6 4 5 4 6 6 7 5 4 4 4 3 3 6 3
3 5 5 4 5 1 2 3 3 2 7 7 6 6 5 4 5 5 5 3 6 4 5 6 6 6 11 9 6 4 3 2 3 6 5 5 4 3 3 3 2 2 1 1 2 3 3 2 3
1 6 4 3 3 1 4 3 3 6 11 3 6 5 5 10 10 9 9 9 8 8 7 6 6 6 6 4 7 6 4 3 2 3 5 3 3 3 3 2 3 3 2 3 2 1 1 2 4
3 4 3 6 8 4 2 7 5 11 11 8 9 12 10 9 9 7 8 7 10 10 9 8 8 8 6 5 3 5 6 4 4 4 4 3 3 3 3 2 2 2 2 3 3 2 1 2 4
2 3 6 7 7 4 5 4 4 6 2 11 11 10 10 12 11 8 13 13 14 13 13 10 8 8 7 5 5 3 3 4 3 3 4 5 4 4 4 3 3 3 3 3 3 3 2 2 2
1 5 8 6 3 5 7 1 7 6 7 10 9 8 10 11 12 12 10 11 12 11 12 13 5 4 6 6 4 3 3 3 3 3 5 7 5 5 5 4 4 4 3 3 2 1 1 2 2
2 3 3 3 3 1 4 7 6 7 8 8 8 8 9 12 11 12 12 12 13 13 14 13 11 7 7 6 5 4 4 3 3 1 1 3 3 5 4 3 4 3 3 3 2 1 2 3 2
4 4 5 8 2 3 3 5 8 13 12 7 7 7 9 10 14 13 13 11 12 12 14 14 14 12 9 10 8 9 10 8 7 7 6 5 2 0 2 2 1 3 3 3 2 2 2 2 3
6 5 4 5 1 5 3 8 6 14 8 8 7 7 9 11 12 11 13 12 13 13 14 14 13 16 10 8 8 8 10 10 9 9 9 11 8 6 3 1 1 2 2 2 2 3 1 1 2
3 4 4 4 5 1 6 4 6 6 9 8 7 8 9 10 8 11 12 12 13 16 17 17 17 16 12 6 4 6 8 8 10 10 14 14 12 11 8 5 5 4 3 3 1 1 1 2 1
3 4 7 5 5 5 6 1 3 6 4 5 6 7 7 7 11 12 13 14 14 13 15 16 17 16 13 9 4 5 3 6 6 8 12 13 14 13 12 11 8 7 5 5 3 1 1 1 3
5 6 5 7 3 2 3 5 3 4 7 9 8 7 8 7 8 9 12 11 11 14 13 14 14 16 14 13 7 5 5 5 8 11 9 12 13 13 12 11 9 9 8 6 5 3 3 3 1
5 7 6 3 3 4 2 6 2 5 5 6 6 6 6 5 5 6 7 8 9 9 10 12 14 14 14 13 13 15 10 8 4 5 6 8 13 14 13 12 10 8 6 9 6 6 4 2 4
6 3 5 3 3 2 3 1 4 7 5 5 4 5 4 4 5 6 5 6 6 7 8 7 13 14 13 14 12 9 10 6 4 6 9 9 9 11 12 12 11 10 7 6 6 7 6 3 4
4 4 5 4 3 1 9 8 4 6 6 7 6 6 6 5 5 5 4 5 6 6 7 6 11 11 10 11 10 11 10 8 8 8 7 6 5 6 10 9 8 7 9 9 7 6 6 5 4
5 5 3 4 2 6 2 3 5 3 2 14 14 9 7 6 5 5 6 6 6 7 7 6 8 9 7 8 8 8 8 7 7 5 4 5 5 4 8 7 7 6 6 5 5 6 6 6 5
6 7 7 7 3 4 2 7 4 2 4 13 11 9 7 6 5 6 6 5 6 6 6 6 7 7 7 7 7 6 7 4 4 4 3 3 3 3 5 5 5 6 7 7 6 3 4 4 4
5 5 5 7 2 3 5 2 2 3 5 7 9 7 8 7 7 7 6 6 6 6 5 5 7 6 5 5 5 6 5 5 4 5 3 3 3 5 7 6 7 7 7 6 5 4 6 5 4
5 6 4 2 1 5 4 6 6 8 10 9 10 11 9 8 8 7 6 6 4 5 4 4 5 5 5 6 5 4 4 4 4 4 5 6 5 5 6 7 7 7 6 6 6 6 6 8 6
3 3 4 4 5 6 2 7 4 13 16 17 15 15 12 11 9 8 7 6 5 4 3 4 3 3 2 3 3 5 5 6 6 6 6 6 7 7 9 8 9 9 9 7 5 7 8 8 10
2 6 7 7 7 4 2 13 1 10 17 16 16 11 8 8 9 8 8 7 6 5 4 4 3 2 3 3 3 4 4 5 5 6 6 6 7 9 10 11 13 14 13 12 11 11 9 9 11
Wind_Direction
326 350 76 43 55 64 320 282 307 281 300 207 98 114 177 174 159 211 301 192 138 141 166 174 175 173 171 168 160 153 154 154 149 145 144 139 118 119 141 131 114 100 88 77 75 67 53 50 57
326 3 44 79 81 61 280 267 263 243 316 77 67 76 16 287 228 275 95 206 169 150 160 170 172 174 167 160 158 160 160 158 156 152 148 127 98 71 72 90 106 105 87 73 63 58 46 33 38
261 44 76 85 100 156 204 235 234 308 10 14 21 150 175 279 312 215 231 163 137 150 157 167 168 171 166 164 163 162 163 162 162 163 162 117 105 118 66 56 93 102 85 61 50 50 46 29 28
42 12 36 80 105 253 227 254 227 358 347 360 73 339 304 334 272 252 122 144 139 151 159 165 171 175 170 163 167 170 172 173 171 171 176 149 136 125 89 37 356 103 77 45 39 40 37 31 21
35 54 53 76 286 266 261 256 189 123 326 294 38 317 280 9 343 97 117 146 155 158 159 167 175 179 173 169 171 174 176 183 186 188 158 146 166 141 70 314 250 174 42 23 57 46 37 32 23
41 89 53 359 285 287 312 341 313 86 232 290 334 63 269 313 219 174 136 171 169 162 162 171 180 179 177 175 175 179 184 190 199 199 173 154 155 165 114 280 230 216 242 280 75 61 38 39 31
102 76 170 205 275 325 336 325 15 9 320 275 193 338 282 307 226 171 153 147 174 171 164 173 184 187 179 176 179 182 186 193 188 176 154 150 163 149 138 221 227 224 232 228 234 21 10 25 19
103 92 88 264 261 274 318 343 340 51 294 312 185 265 299 296 141 134 143 149 167 183 187 185 182 187 186 190 186 183 183 189 184 169 161 155 155 147 132 185 224 238 244 229 218 291 345 24 14
115 63 200 236 183 254 320 11 311 272 244 355 285 258 309 355 99 106 117 324 217 213 208 192 186 191 197 188 191 190 189 187 184 174 169 159 159 160 145 155 188 228 244 233 212 229 269 32 0
84 113 221 219 204 236 296 247 342 345 323 281 317 325 353 78 357 214 218 231 230 225 224 204 190 192 197 200 201 201 195 196 185 171 172 158 150 151 148 158 180 212 229 213 210 254 63 35 7
159 196 209 250 237 233 266 287 182 255 302 245 287 300 340 321 327 325 307 297 278 296 294 245 199 186 193 199 190 193 204 213 176 173 167 161 146 150 139 147 169 172 246 157 123 50 60 9 1
199 245 215 270 166 342 267 309 278 205 241 30 355 292 12 29 33 20 4 352 338 287 266 237 222 196 197 182 197 201 192 165 167 147 151 141 146 154 145 165 184 173 167 168 140 130 125 347 334
213 271 289 274 294 256 320 256 243 263 268 71 64 49 41 34 17 8 359 350 343 341 316 267 196 196 179 173 173 192 205 175 155 161 168 155 155 155 133 189 194 197 155 169 174 174 232 311 315
228 273 275 278 266 254 239 267 145 287 60 74 62 50 38 33 14 9 13 1 358 343 338 315 233 186 157 164 159 161 158 182 161 166 184 185 166 161 164 165 200 208 198 177 177 188 215 263 319
289 316 322 272 278 210 165 285 226 255 32 85 63 54 46 32 23 20 2 2 355 349 342 353 336 154 143 136 132 122 121 151 182 189 185 183 161 173 169 183 192 203 187 165 144 178 182 258 241
2 41 330 275 154 358 133 261 282 19 30 92 68 46 40 28 22 12 8 8 1 359 5 4 14 51 82 88 85 80 58 36 22 315 190 145 171 162 165 177 214 169 166 158 159 189 272 279 291
1 237 213 313 249 142 143 256 271 14 359 112 69 46 43 28 22 15 9 9 11 8 9 18 20 27 55 69 68 63 58 50 40 34 17 358 353 192 178 196 208 131 163 198 169 202 198 253 273
210 221 240 233 206 33 297 257 349 358 44 87 70 56 51 42 22 13 16 15 19 20 26 27 27 23 25 61 70 68 63 50 43 33 24 24 21 16 16 6 69 138 152 185 188 210 175 256 274
173 190 231 261 263 294 239 254 4 2 49 63 64 63 54 40 19 28 29 28 31 32 33 30 33 22 31 19 21 34 54 42 41 36 29 28 28 25 31 19 7 12 341 337 102 100 263 302 16
218 240 253 274 265 170 282 245 105 54 53 62 75 67 58 47 32 26 24 31 33 37 36 36 37 34 35 37 26 46 49 48 49 36 36 32 34 31 40 33 21 15 358 1 353 348 325 243 192
220 196 226 220 341 308 327 291 182 60 81 81 62 66 57 55 50 32 33 24 29 37 37 43 40 42 38 38 37 38 51 38 32 25 27 26 30 32 35 36 32 28 22 4 350 333 276 302 322
232 207 222 182 120 228 47 278 231 127 82 59 64 58 61 64 59 51 39 39 39 33 36 50 56 49 44 43 55 57 57 59 19 20 27 31 31 33 29 28 30 33 27 19 356 347 331 315 287
231 145 165 145 135 87 279 323 251 122 162 166 144 126 111 95 85 76 62 58 35 29 48 37 60 54 52 54 55 68 62 49 20 29 33 28 30 36 31 27 19 21 22 16 12 0 348 327 304
132 103 54 53 106 273 216 177 226 186 187 164 169 159 153 133 113 96 83 73 62 42 49 44 63 59 53 61 59 66 71 58 49 29 29 14 10 21 23 21 26 20 9 3 360 355 356 341 315
76 72 333 336 354 235 122 150 256 306 278 178 164 161 171 161 142 117 93 80 71 60 54 68 69 65 63 73 69 68 75 68 61 47 20 14 8 4 8 16 13 4 355 356 352 351 351 347 338
179 160 160 232 210 267 327 238 258 344 56 121 138 159 163 172 160 139 127 109 94 83 72 68 67 72 60 65 63 66 65 61 68 51 23 5 18 344 347 352 357 358 354 351 351 333 330 336 314
182 186 176 109 89 41 231 288 212 98 88 116 144 161 184 180 178 166 153 135 117 104 86 91 84 70 71 80 76 56 53 53 42 38 26 333 346 348 346 343 338 340 339 339 333 326 321 319 306
155 161 98 14 214 247 278 272 237 207 184 175 183 193 195 190 180 168 156 156 150 138 137 125 100 84 56 54 57 66 59 40 23 17 10 345 341 332 333 340 332 329 321 316 318 315 308 310 303
153 174 68 126 141 178 251 257 215 199 186 186 195 201 189 187 180 172 176 168 153 152 118 84 79 71 39 32 11 4 360 355 353 351 348 341 339 336 336 333 325 324 321 316 292 295 293 296 299
300 186 159 193 228 238 174 259 250 197 186 184 200 198 190 181 177 172 177 170 172 173 175 196 214 227 250 256 249 269 302 325 326 321 315 317 317 320 322 325 324 325 322 321 316 311 308 294 296